This is the latest recevied weather packets stored in our database for station/object WB5HZM-3. If no packets are shown the sender has not sent any weather packets the latest 10 day(s).
| Time | Temp. | Humidity | Pressure | Rain* | Wind** | Luminosity | Snow |
|---|---|---|---|---|---|---|---|
| 1778103796 | 27.22° C | 84% | 1009.4 hPa | 0 mm | - | - | - |
| 1778103193 | 27.22° C | 84% | 1009.5 hPa | 0 mm | - | - | - |
| 1778102613 | 27.22° C | 84% | 1009.5 hPa | 0 mm | - | - | - |
| 1778102008 | 27.22° C | 84% | 1009.7 hPa | 0 mm | - | - | - |
| 1778101401 | 27.22° C | 84% | 1009.9 hPa | 0 mm | - | - | - |
| 1778100800 | 27.22° C | 84% | 1009.7 hPa | 0 mm | - | - | - |
| 1778100214 | 26.67° C | 84% | 1009.9 hPa | 0 mm | - | - | - |
| 1778099608 | 26.67° C | 84% | 1010 hPa | 0 mm | - | - | - |
| 1778099004 | 26.67° C | 84% | 1010.1 hPa | 0 mm | - | - | - |
| 1778098404 | 26.67° C | 84% | 1010.2 hPa | 0 mm | - | - | - |
| 1778097738 | 26.11° C | 84% | 1010.3 hPa | 0 mm | - | - | - |
| 1778097137 | 26.11° C | 84% | 1010.4 hPa | 0 mm | - | - | - |
| 1778096551 | 26.11° C | 85% | 1010.3 hPa | 0 mm | - | - | - |
| 1778095947 | 26.11° C | 85% | 1010.4 hPa | 0 mm | - | - | - |
| 1778095342 | 26.11° C | 85% | 1010.3 hPa | 0 mm | - | - | - |
| 1778094742 | 26.11° C | 85% | 1010.4 hPa | 0 mm | - | - | - |
| 1778094159 | 25.56° C | 85% | 1010.5 hPa | 0 mm | - | - | - |
| 1778093555 | 25.56° C | 85% | 1010.6 hPa | 0 mm | - | - | - |
| 1778092955 | 25.56° C | 85% | 1010.8 hPa | 0 mm | - | - | - |
| 1778092350 | 25.56° C | 85% | 1011.1 hPa | 0 mm | - | - | - |
| 1778091746 | 25° C | 85% | 1011.3 hPa | 0 mm | - | - | - |
| 1778091162 | 25.56° C | 85% | 1011.7 hPa | 0 mm | - | - | - |
| 1778090561 | 25° C | 85% | 1011.9 hPa | 0 mm | - | - | - |
| 1778089956 | 25° C | 85% | 1012.2 hPa | 0 mm | - | - | - |
| 1778089351 | 25° C | 85% | 1012.3 hPa | 0 mm | - | - | - |
* Rain latest hour (hover to see other rain measurements)
** Current wind speed in m/s (hover to see current wind gust speed)